Siemreap, Cambodia

8:36 PM ICT on February 24, 2017 (GMT +0700)
Siem Reap

Weather History for VDSR - October, 2013

Change the Weather History Date:

Sunday, October 13, 2013

  Actual Average Record
Temperature  
Mean Temperature 80 °F -  
Max Temperature 86 °F - - ()
Min Temperature 75 °F - - ()
Cooling Degree Days 16    
Growing Degree Days 30 (Base 50)    
Moisture  
Dew Point 75 °F    
Average Humidity 80    
Maximum Humidity 94    
Minimum Humidity 70    
Precipitation  
Precipitation 0.00 in - - ()
Sea Level Pressure  
Sea Level Pressure 29.75 in    
Wind  
Wind Speed 3 mph ()    
Max Wind Speed 15 mph    
Max Gust Speed -    
Visibility 5.7 miles    
Events Rain    
T = Trace of Precipitation, MM = Missing Value Source: Averaged Metar Reports

Daily Weather History Graph

Daily Weather History Graph

Search for Another Location

Airport or City:

Trip Planner

Search our weather history database for the weather conditions in past years. The results will help you decide how hot, cold, wet, or windy it might be!

Date:

Astronomy

Oct. 13, 2013 Rise Set
Actual Time 5:54 AM ICT 5:46 PM ICT
Civil Twilight 5:33 AM ICT 6:08 PM ICT
Nautical Twilight 5:08 AM ICT 6:32 PM ICT
Astronomical Twilight 4:43 AM ICT 6:57 PM ICT
Moon 1:23 PM ICT (10/13) 12:26 AM ICT (10/13)
Length of Visible Light 12h 34m
Length of Day
11h 51m
Waxing Gibbous, 64% of the Moon is Illuminated
Oct 13
Waxing Gibbous
Oct 19
Full
Oct 27
Last Quarter
Nov 3
New
Nov 10
First Quarter

Hourly Weather History & Observations

Time (ICT) Temp. Heat Index Dew Point Humidity Pressure Visibility Wind Dir Wind Speed Gust Speed Precip Events Conditions
12:00 AM 78.8 °F - 75.2 °F 89% 29.77 in 5.6 mi Calm Calm - N/A   Scattered Clouds
12:30 AM 78.8 °F - 75.2 °F 89% 29.77 in 5.6 mi Calm Calm - N/A   Scattered Clouds
1:00 AM 78.8 °F - 75.2 °F 89% 29.74 in 5.6 mi Calm Calm - N/A   Scattered Clouds
7:00 AM 78.8 °F - 75.2 °F 89% 29.80 in 6.2 mi North 1.2 mph - N/A   Partly Cloudy
8:00 AM 80.6 °F 86.2 °F 75.2 °F 84% 29.80 in 6.2 mi North 3.5 mph - N/A   Partly Cloudy
8:30 AM 82.4 °F 89.5 °F 75.2 °F 79% 29.80 in 6.2 mi Variable 2.3 mph - N/A   Partly Cloudy
9:00 AM 84.2 °F 92.3 °F 75.2 °F 74% 29.80 in 6.2 mi Calm Calm - N/A   Partly Cloudy
9:30 AM 86.0 °F 95.1 °F 75.2 °F 70% 29.80 in 6.2 mi East 5.8 mph - N/A   Scattered Clouds
10:00 AM 86.0 °F 96.9 °F 77.0 °F 74% 29.80 in 6.2 mi ESE 5.8 mph - N/A   Scattered Clouds
10:30 AM 86.0 °F 95.1 °F 75.2 °F 70% 29.80 in 6.2 mi Variable 3.5 mph - N/A   Scattered Clouds
11:00 AM 84.2 °F 92.3 °F 75.2 °F 74% 29.77 in 6.2 mi Variable 3.5 mph - N/A   Scattered Clouds
11:30 AM 84.2 °F 94.1 °F 77.0 °F 79% 29.77 in 6.2 mi South 5.8 mph - N/A   Scattered Clouds
12:00 PM 86.0 °F 96.9 °F 77.0 °F 74% 29.77 in 6.2 mi South 6.9 mph - N/A   Scattered Clouds
12:30 PM 84.2 °F 92.3 °F 75.2 °F 74% 29.74 in 6.2 mi SSW 5.8 mph - N/A   Scattered Clouds
1:00 PM 86.0 °F 96.9 °F 77.0 °F 74% 29.74 in 6.2 mi South 5.8 mph - N/A   Scattered Clouds
1:30 PM 86.0 °F 95.1 °F 75.2 °F 70% 29.71 in 6.2 mi SSW 5.8 mph - N/A   Scattered Clouds
2:00 PM 86.0 °F 96.9 °F 77.0 °F 74% 29.71 in 6.2 mi South 6.9 mph - N/A   Scattered Clouds
2:30 PM 86.0 °F 95.1 °F 75.2 °F 70% 29.71 in 6.2 mi SSW 4.6 mph - N/A   Scattered Clouds
3:00 PM 86.0 °F 95.1 °F 75.2 °F 70% 29.68 in 6.2 mi SSW 4.6 mph - N/A   Scattered Clouds
3:30 PM 86.0 °F 95.1 °F 75.2 °F 70% 29.68 in 6.2 mi SW 4.6 mph - N/A   Scattered Clouds
4:00 PM 86.0 °F 95.1 °F 75.2 °F 70% 29.68 in 6.2 mi WSW 5.8 mph - N/A   Scattered Clouds
4:30 PM 86.0 °F 95.1 °F 75.2 °F 70% 29.68 in 6.2 mi SW 4.6 mph - N/A   Scattered Clouds
5:00 PM 84.2 °F 94.1 °F 77.0 °F 79% 29.68 in 6.2 mi SW 4.6 mph - N/A   Scattered Clouds
5:30 PM 84.2 °F 94.1 °F 77.0 °F 79% 29.68 in 6.2 mi SSW 5.8 mph - N/A   Scattered Clouds
6:00 PM 84.2 °F 94.1 °F 77.0 °F 79% 29.71 in 6.2 mi SSW 4.6 mph - N/A   Scattered Clouds
6:30 PM 78.8 °F - 71.6 °F 78% 29.74 in 2.5 mi East 15.0 mph - N/A Rain Rain
7:00 PM 75.2 °F - 71.6 °F 89% 29.74 in 4.3 mi Variable 3.5 mph - N/A Rain Light Rain
7:30 PM 77.0 °F - 73.4 °F 89% 29.74 in 5.0 mi Calm Calm - N/A   Scattered Clouds
8:00 PM 77.0 °F - 73.4 °F 89% 29.74 in 5.0 mi South 1.2 mph - N/A   Scattered Clouds
8:30 PM 78.8 °F - 75.2 °F 89% 29.77 in 5.0 mi Calm Calm - N/A   Scattered Clouds
9:00 PM 78.8 °F - 75.2 °F 89% 29.77 in 5.0 mi NE 3.5 mph - N/A   Scattered Clouds
9:30 PM 78.8 °F - 73.4 °F 83% 29.77 in 5.0 mi Calm Calm - N/A   Scattered Clouds
10:00 PM 78.8 °F - 75.2 °F 89% 29.77 in 5.0 mi Calm Calm - N/A   Scattered Clouds
10:30 PM 78.8 °F - 75.2 °F 89% 29.77 in 5.0 mi Calm Calm - N/A   Scattered Clouds
11:00 PM 78.8 °F - 77.0 °F 94% 29.77 in 5.0 mi Calm Calm - N/A   Scattered Clouds
11:30 PM 78.8 °F - 75.2 °F 89% 29.74 in 5.0 mi Calm Calm - N/A   Scattered Clouds